Terminal Aerodrome Forecast
Issued by NWS

Home | Current Version | Previous Version | Text Only | Print | Product List | Glossary On
Versions: 1 2 3 4 5 6 7 8 9 10 11 12 13
000
FTUS44 KSJT 090534
TAFBBD
TAF
KBBD 090534Z 0906/1006 VRB06KT P6SM BKN040
     FM091800 18007KT P6SM SKC
     FM100000 VRB06KT P6SM SKC
      AMD NOT SKED=

USA.gov is the U.S. government's official web portal to all federal, state and local government web resources and services.